Total_Precipitation_Accumulation
0.14 0.14 0.13 0.15 0.11 0.05 0.01 0.00 0.00 0.00 0.00 0.00 0.01 0.00 0.00 0.01 0.01 0.06 0.07 0.06 0.05 0.09 0.17 0.33 0.44 0.46 0.55 0.57 0.51 0.47 0.47 0.47 0.50 0.53 0.55 0.56 0.55 0.54 0.56 0.56 0.56 0.62 0.69 0.72 0.75 0.69 0.65 0.64 0.63
0.15 0.18 0.20 0.19 0.09 0.02 0.01 0.00 0.00 0.00 0.00 0.00 0.01 0.01 0.00 0.01 0.01 0.03 0.06 0.05 0.05 0.10 0.17 0.23 0.38 0.44 0.55 0.58 0.54 0.52 0.49 0.48 0.52 0.55 0.55 0.57 0.61 0.61 0.57 0.55 0.61 0.66 0.73 0.79 0.74 0.67 0.66 0.66 0.63
0.24 0.27 0.24 0.18 0.06 0.01 0.00 0.00 0.00 0.00 0.00 0.01 0.01 0.01 0.01 0.01 0.01 0.02 0.03 0.04 0.06 0.10 0.16 0.24 0.39 0.46 0.55 0.61 0.63 0.60 0.58 0.56 0.57 0.59 0.55 0.58 0.62 0.63 0.60 0.59 0.64 0.66 0.69 0.69 0.69 0.67 0.70 0.67 0.60
0.37 0.41 0.31 0.17 0.03 0.00 0.00 0.00 0.00 0.00 0.00 0.00 0.01 0.01 0.02 0.01 0.01 0.02 0.03 0.04 0.05 0.09 0.16 0.27 0.44 0.55 0.61 0.63 0.68 0.68 0.65 0.67 0.68 0.65 0.63 0.67 0.70 0.69 0.64 0.61 0.61 0.62 0.66 0.67 0.62 0.63 0.66 0.67 0.60
0.49 0.48 0.34 0.14 0.02 0.00 0.00 0.00 0.01 0.01 0.01 0.00 0.01 0.01 0.02 0.02 0.01 0.02 0.04 0.05 0.05 0.10 0.18 0.28 0.50 0.65 0.66 0.67 0.71 0.73 0.76 0.81 0.81 0.80 0.79 0.80 0.79 0.79 0.78 0.73 0.65 0.59 0.59 0.60 0.60 0.61 0.63 0.66 0.61
0.61 0.54 0.30 0.09 0.02 0.01 0.00 0.01 0.01 0.01 0.01 0.01 0.01 0.02 0.03 0.04 0.04 0.05 0.08 0.11 0.12 0.14 0.22 0.35 0.63 0.75 0.71 0.72 0.79 0.81 0.81 0.85 0.87 0.88 0.89 0.87 0.83 0.83 0.88 0.83 0.71 0.60 0.51 0.48 0.50 0.51 0.57 0.60 0.58
0.60 0.49 0.24 0.08 0.03 0.02 0.01 0.01 0.01 0.01 0.01 0.01 0.01 0.03 0.04 0.08 0.08 0.08 0.12 0.17 0.22 0.24 0.29 0.43 0.63 0.79 0.83 0.83 0.83 0.81 0.83 0.85 0.86 0.88 0.90 0.88 0.81 0.82 0.83 0.80 0.72 0.62 0.54 0.49 0.46 0.45 0.48 0.51 0.55
0.60 0.56 0.28 0.12 0.07 0.04 0.02 0.02 0.02 0.02 0.01 0.01 0.02 0.03 0.03 0.06 0.10 0.13 0.19 0.27 0.31 0.37 0.43 0.54 0.69 0.78 0.81 0.86 0.85 0.81 0.79 0.80 0.81 0.82 0.85 0.78 0.75 0.74 0.75 0.71 0.65 0.59 0.58 0.56 0.49 0.46 0.46 0.42 0.42
0.73 0.73 0.33 0.11 0.08 0.05 0.03 0.03 0.03 0.03 0.02 0.02 0.02 0.03 0.04 0.06 0.14 0.24 0.34 0.46 0.50 0.54 0.64 0.71 0.83 0.91 0.93 0.92 0.87 0.88 0.85 0.84 0.81 0.79 0.79 0.76 0.74 0.73 0.70 0.63 0.59 0.58 0.58 0.54 0.49 0.45 0.46 0.41 0.36
0.84 0.72 0.30 0.10 0.07 0.07 0.06 0.05 0.06 0.06 0.06 0.04 0.05 0.05 0.08 0.13 0.24 0.28 0.30 0.40 0.48 0.54 0.66 0.74 0.90 0.97 1.04 0.99 1.00 1.03 0.91 0.85 0.81 0.73 0.69 0.72 0.74 0.73 0.67 0.64 0.59 0.57 0.59 0.58 0.58 0.52 0.46 0.40 0.34
0.66 0.49 0.22 0.11 0.10 0.11 0.12 0.09 0.08 0.09 0.09 0.06 0.06 0.07 0.12 0.20 0.27 0.31 0.30 0.36 0.44 0.54 0.67 0.78 0.91 1.05 1.11 1.10 1.08 1.07 0.99 0.90 0.86 0.79 0.78 0.84 0.85 0.79 0.76 0.72 0.66 0.64 0.62 0.67 0.69 0.71 0.61 0.55 0.50
0.50 0.33 0.21 0.15 0.12 0.15 0.16 0.14 0.13 0.11 0.08 0.05 0.05 0.08 0.15 0.21 0.24 0.29 0.35 0.42 0.55 0.68 0.76 0.88 1.03 1.20 1.25 1.21 1.14 1.06 0.97 0.89 0.87 0.82 0.83 0.90 0.92 0.84 0.78 0.75 0.67 0.64 0.65 0.67 0.73 0.76 0.72 0.67 0.61
0.48 0.30 0.22 0.20 0.18 0.17 0.18 0.17 0.15 0.13 0.08 0.09 0.12 0.13 0.17 0.20 0.24 0.33 0.42 0.49 0.59 0.71 0.82 0.96 1.10 1.26 1.34 1.39 1.33 1.16 1.01 0.89 0.86 0.86 0.81 0.79 0.82 0.80 0.73 0.68 0.60 0.55 0.56 0.58 0.61 0.63 0.66 0.66 0.63
0.46 0.34 0.26 0.24 0.25 0.22 0.21 0.18 0.16 0.12 0.11 0.17 0.19 0.19 0.19 0.20 0.24 0.37 0.48 0.54 0.58 0.70 0.83 0.97 1.15 1.34 1.45 1.43 1.45 1.38 1.24 1.06 0.98 0.93 0.86 0.80 0.76 0.74 0.70 0.62 0.53 0.47 0.45 0.43 0.43 0.43 0.48 0.53 0.52
0.49 0.49 0.43 0.33 0.30 0.27 0.28 0.24 0.14 0.10 0.15 0.23 0.26 0.28 0.27 0.26 0.28 0.35 0.47 0.55 0.58 0.70 0.92 1.05 1.22 1.44 1.56 1.56 1.51 1.53 1.50 1.34 1.20 1.07 0.97 0.89 0.82 0.77 0.74 0.72 0.67 0.61 0.54 0.50 0.47 0.42 0.40 0.43 0.45
0.76 0.81 0.70 0.42 0.34 0.33 0.45 0.33 0.11 0.11 0.21 0.26 0.29 0.34 0.34 0.33 0.32 0.34 0.47 0.59 0.69 0.78 0.93 1.13 1.26 1.41 1.50 1.64 1.70 1.64 1.63 1.53 1.35 1.17 1.09 1.00 0.89 0.82 0.81 0.78 0.71 0.70 0.71 0.67 0.63 0.56 0.52 0.46 0.42
1.17 1.02 0.66 0.42 0.37 0.41 0.48 0.32 0.14 0.17 0.25 0.30 0.32 0.34 0.38 0.41 0.40 0.40 0.46 0.57 0.73 0.81 0.90 1.03 1.17 1.30 1.43 1.60 1.80 1.85 1.81 1.68 1.48 1.29 1.18 1.12 1.03 0.88 0.81 0.80 0.74 0.69 0.70 0.68 0.68 0.66 0.64 0.61 0.55
1.01 0.73 0.54 0.41 0.36 0.43 0.44 0.30 0.19 0.23 0.29 0.30 0.31 0.35 0.42 0.42 0.37 0.41 0.49 0.61 0.78 0.91 0.99 1.07 1.17 1.30 1.48 1.69 1.81 1.93 1.94 1.84 1.72 1.53 1.34 1.27 1.20 1.07 0.92 0.84 0.81 0.79 0.75 0.70 0.64 0.64 0.66 0.66 0.62
0.71 0.60 0.53 0.38 0.32 0.42 0.39 0.28 0.21 0.23 0.28 0.30 0.32 0.36 0.41 0.40 0.41 0.49 0.59 0.72 0.85 0.95 1.04 1.10 1.15 1.24 1.42 1.56 1.62 1.59 1.69 1.68 1.68 1.67 1.56 1.46 1.38 1.28 1.16 1.01 0.92 0.92 0.86 0.77 0.66 0.60 0.61 0.62 0.61
0.81 0.76 0.57 0.42 0.36 0.44 0.39 0.27 0.21 0.21 0.26 0.28 0.32 0.36 0.39 0.42 0.48 0.53 0.67 0.80 0.85 0.88 1.00 1.10 1.11 1.17 1.22 1.25 1.37 1.43 1.47 1.52 1.57 1.62 1.65 1.62 1.52 1.38 1.29 1.17 1.03 0.92 0.89 0.83 0.75 0.67 0.63 0.60 0.56
0.86 0.75 0.59 0.52 0.51 0.56 0.54 0.47 0.27 0.23 0.24 0.25 0.30 0.33 0.36 0.40 0.42 0.44 0.57 0.80 0.89 0.89 0.96 1.05 1.10 1.12 1.22 1.27 1.43 1.51 1.63 1.66 1.59 1.54 1.56 1.60 1.56 1.46 1.34 1.25 1.17 1.08 0.97 0.89 0.84 0.80 0.74 0.68 0.60
0.86 0.56 0.54 0.58 0.81 0.99 0.79 0.87 0.40 0.27 0.28 0.26 0.29 0.35 0.35 0.38 0.41 0.40 0.48 0.71 0.88 0.87 0.98 1.10 1.17 1.23 1.27 1.33 1.42 1.35 1.31 1.37 1.32 1.33 1.34 1.46 1.57 1.53 1.41 1.38 1.35 1.22 1.09 0.95 0.86 0.87 0.87 0.85 0.80
0.64 0.52 0.63 0.73 0.93 1.10 0.83 0.88 0.48 0.28 0.35 0.33 0.34 0.39 0.38 0.38 0.41 0.39 0.42 0.61 0.83 0.92 0.99 1.17 1.23 1.29 1.34 1.31 1.39 1.36 1.25 1.20 1.28 1.40 1.47 1.43 1.46 1.54 1.48 1.36 1.35 1.30 1.18 1.09 1.01 0.90 0.89 0.92 0.91
0.62 0.81 1.06 1.18 1.56 1.72 0.79 0.71 0.56 0.43 0.44 0.40 0.38 0.42 0.42 0.40 0.43 0.45 0.46 0.59 0.74 0.86 0.98 1.10 1.28 1.30 1.40 1.35 1.36 1.32 1.21 1.15 1.19 1.27 1.44 1.50 1.49 1.52 1.54 1.44 1.38 1.29 1.18 1.11 1.11 1.04 0.94 0.90 0.91
1.03 1.53 2.39 2.70 2.67 1.63 0.47 0.48 0.57 0.44 0.41 0.43 0.42 0.41 0.42 0.42 0.46 0.45 0.44 0.52 0.62 0.76 0.90 1.02 1.16 1.33 1.38 1.38 1.32 1.30 1.20 1.12 1.12 1.15 1.23 1.32 1.39 1.45 1.47 1.47 1.39 1.29 1.18 1.04 1.04 1.08 1.04 0.97 0.98
1.11 1.26 1.71 1.85 1.41 0.69 0.37 0.44 0.46 0.37 0.33 0.33 0.34 0.36 0.34 0.38 0.47 0.47 0.42 0.46 0.54 0.67 0.81 0.94 1.04 1.25 1.37 1.35 1.34 1.35 1.25 1.14 1.09 1.10 1.12 1.17 1.14 1.19 1.31 1.42 1.45 1.30 1.15 1.05 0.99 1.00 1.00 1.02 1.04
1.02 1.03 0.84 1.08 0.80 0.53 0.48 0.39 0.34 0.28 0.26 0.28 0.33 0.38 0.38 0.39 0.45 0.47 0.41 0.45 0.51 0.64 0.75 0.85 0.96 1.12 1.30 1.37 1.39 1.39 1.31 1.21 1.12 1.10 1.10 1.17 1.12 1.04 1.10 1.25 1.39 1.46 1.36 1.20 1.10 1.06 0.99 1.01 1.06
0.91 0.97 1.13 1.50 1.26 0.75 0.44 0.33 0.38 0.36 0.32 0.31 0.35 0.39 0.38 0.36 0.39 0.40 0.38 0.42 0.51 0.62 0.72 0.80 0.91 1.02 1.16 1.27 1.36 1.40 1.42 1.32 1.25 1.21 1.14 1.09 1.11 1.11 1.06 1.07 1.16 1.26 1.36 1.37 1.27 1.20 1.11 1.07 1.05
0.98 1.21 1.45 1.45 1.11 0.91 0.60 0.45 0.43 0.36 0.30 0.28 0.30 0.35 0.35 0.35 0.39 0.38 0.37 0.41 0.49 0.61 0.70 0.74 0.82 0.97 1.11 1.19 1.25 1.33 1.45 1.35 1.31 1.31 1.24 1.13 1.08 1.12 1.13 1.10 1.16 1.21 1.26 1.30 1.35 1.30 1.26 1.23 1.19
0.86 1.04 1.20 1.43 1.11 0.69 0.66 0.52 0.35 0.27 0.24 0.23 0.24 0.30 0.36 0.36 0.37 0.35 0.37 0.42 0.46 0.55 0.66 0.72 0.78 0.85 1.00 1.14 1.20 1.26 1.39 1.40 1.32 1.33 1.31 1.19 1.10 1.09 1.13 1.15 1.17 1.25 1.30 1.31 1.37 1.36 1.33 1.38 1.35